Location: Newark
(52.3500°N, 175.9667°E)
Time: 15:12:02
(UTC+00:00)

N. Korean satellite - Pass Details

Date: 16 November 2019
Orbit: 456 x 506 km, 97.2° (Epoch: 06 December)

Event Time Altitude Azimuth Distance (km) Brightness Sun altitude
Rises 05:28:27 0° 177° (S) 2,552 10.4 -9.9°
Reaches altitude 10° 05:30:32 10° 182° (S) 1,684 9.6 -10.2°
Maximum altitude 05:34:05 52° 260° (W) 627 7.6 -10.7°
Drops below altitude 10° 05:37:43 10° 338° (NNW) 1,722 9.4 -11.3°
Sets 05:39:53 0° 343° (NNW) 2,617 10.3 -11.6°
